STARLINK-32761 (62749 NORAD) Tracking and Keplerian Element Data

This shows tracking and keplerian element data for the satellite.

Feedback or suggestion? Click here.




ElementValue
Catalog62749
NameSTARLINK-32761
Epoch Orbit221
Epoch Day35.25001157
Epoch Year2025
RAAN253.8263
Inclination42.9995
Eccentricity0.0001716
Argument of Perigee278.0904
Mean Anonmoly106.4431
Mean Motion15.643386
Decay Rate-0.01474861
L11 62749U 25014Q 25035.25001157 -.01474861 00000+0 -16739-1 0 9995
L22 62749 42.9995 253.8263 0001716 278.0904 106.4431 15.64338600 2212



Live tracking and technical data element details for STARLINK-32761 (NORAD 62749). STARLINK-32761 can be tracked NOW for your location showing map with azimuth and elevation plus other details from your city location.







IsCatalogInMostPopularTable: catalog: 62749, numindb: 185
Update: records affected: 1



GetName: 62749 STARLINK-32761

Hit Count: updated at: Mon, 17 Nov 2025 18:40:53 GMT